Location: Sungai Bunut
(2.6333°N, 113.7333°E)
Time: 15:51:20
(UTC+00:00)

Vanguard 3 - Pass Details

Date: 11 December 2023
Orbit: 508 x 3239 km, 33.4° (Epoch: 28 February)

Event Time Altitude Azimuth Distance (km) Brightness Sun altitude
Rises 13:51:40 0° 294° (WNW) 6,760 12.1 -49.1°
Reaches altitude 10° 14:01:16 10° 321° (NW) 5,074 11.2 -51.1°
Enters shadow 14:03:21 11° 329° (NNW) 4,778 11.0 -51.5°
Maximum altitude 14:05:54 12° 340° (NNW) 4,485 - -52.0°
Drops below altitude 10° 14:09:55 10° 0° (N) 4,246 - -52.8°
Sets 14:15:58 0° 30° (NNE) 4,549 - -54.1°
